Погода в Ромахове

Россия / Белгородская область     50°22′07″N   38°32′46″E
В апреле 2022 года жителям России запретили посещать сайт meteo.paraplan.net по решению Генеральной прокуратуры. Аудитория сайта уменьшилась в 10 раз. Владельцы сайта не видят смысла в поддержке погодного сервера в таких условиях. Сайт будет закрыт в октябре.
темп.,
°C
ветер,
м/с
пор.,
м/с
влажн.,
%
обл.,
%
осадки,
мм/ч
давл.,
гПа
погр.,
м
29 сентября, чт
чт2900:00+12з22865 0.0 100512
03:00+11з22893 0.0 100615
06:00+11з11905 0.0 100810
09:00+15з23775 0.0 1010266
12:00+18з33647 0.0 1011925
15:00+20з225796 0.0 10121259
18:00+18з2262100 0.0 101319
21:00+16в1165100 0.0 101411
30 сентября, пт
пт3000:00+16юв2268100 0.0 101531
03:00+15юв3472100 0.0 101568
06:00+14ююв337972 0.0 101640
09:00+18ююв357072 0.0 1017217
12:00+21ю455723 0.0 1017770
15:00+23ююз56465 0.0 10161622
18:00+19ююв346290 0.0 101755
21:00+18в3468100 0.3 101773
1 октября, сб
сб100:00+17ю2673100 0.0 1017195
03:00+15ююз389597 2.1 1018327
06:00+15ююз389699 0.4 1018214
09:00+17ююз358592 0.4 1019328
12:00+21юз4569100 0.0 1018885
15:00+23зюз456099 0.0 10171172
18:00+19юз2270100 0.0 101612
21:00+18ююз3376100 0.0 101633
2 октября, вс
вс200:00+17ююз378489 0.0 1015141
03:00+16юз358762 0.0 101475
06:00+15ю338591 0.0 101339
09:00+18ююз3568100 0.0 1013234
12:00+21ююз4560100 0.0 1012495
15:00+23ю3548100 0.0 1010987
18:00+20юв3463100 0.0 100949
21:00+18юв3769100 0.1 1008150
3 октября, пн
пн300:00+18юв41073100 0.9 1006205
03:00+18юв51370100 1.0 1005286
06:00+17юв81665100 0.6 1000629
09:00+15юв81590100 4.9 999675
12:00+19ююв121974100 1.0 9961623
15:00+15ююз10167333 2.3 9981104
18:00+12ююз91577100 0.1 10021427
21:00+11ююз81478100 0.1 10061319